Snowfall_Accumulation
3.1 7.8 9.9 4.9 3.8 3.2 3.2 3.5 3.0 1.7 0.6 0.9 1.1 0.9 0.2 0.1 0.1 0.1 0.4 0.2 0.1 0.1 0.0 0.0 0.0 0.0 0.0 0.0 0.0 0.0 0.0 0.0 0.0 0.0 0.0 0.0 0.1 0.0 0.0 0.0 0.0 0.0 0.0 0.0
6.4 7.8 3.6 1.5 1.8 3.1 4.3 5.1 3.6 1.5 0.8 1.0 1.3 0.9 0.3 0.1 0.2 0.3 0.3 0.2 0.1 0.1 0.0 0.0 0.0 0.0 0.0 0.0 0.0 0.0 0.0 0.0 0.0 0.0 0.0 0.0 0.0 0.0 0.0 0.0 0.0 0.0 0.0 0.0
7.4 3.5 0.9 2.1 3.3 4.7 4.7 4.5 3.3 2.7 1.8 1.4 2.4 2.4 0.7 0.4 0.3 0.5 0.5 0.4 0.2 0.2 0.1 0.1 0.1 0.1 0.1 0.0 0.0 0.0 0.0 0.0 0.0 0.0 0.0 0.0 0.0 0.0 0.0 0.0 0.0 0.0 0.0 0.0
4.0 1.1 1.3 3.0 3.5 4.3 6.1 2.2 2.0 2.8 4.9 6.1 4.9 7.9 1.8 0.7 0.4 0.5 0.5 0.6 0.3 0.3 0.1 0.1 0.1 0.1 0.1 0.1 0.1 0.0 0.0 0.0 0.0 0.0 0.0 0.0 0.0 0.0 0.0 0.0 0.0 0.0 0.0 0.0
4.8 1.6 2.2 4.0 2.7 2.6 3.3 1.2 1.9 3.4 5.7 8.2 4.6 8.6 3.1 1.2 1.5 1.4 0.6 0.6 0.7 0.4 0.3 0.3 0.2 0.1 0.1 0.1 0.1 0.1 0.0 0.0 0.0 0.0 0.0 0.0 0.0 0.0 0.0 0.0 0.0 0.0 0.0 0.0
3.0 0.7 1.4 2.2 1.0 1.5 1.6 2.2 3.2 4.5 9.1 17.9 6.7 7.5 4.9 3.3 3.6 2.3 1.0 0.6 0.6 0.6 0.4 0.4 0.4 0.2 0.1 0.1 0.1 0.1 0.0 0.0 0.0 0.0 0.0 0.0 0.0 0.0 0.0 0.0 0.0 0.0 0.0 0.0
6.2 2.9 1.5 1.2 3.2 2.7 4.0 10.6 25.6 28.7 28.1 15.8 3.1 5.0 5.2 3.5 3.1 3.1 1.9 1.3 0.6 0.5 0.5 0.4 0.4 0.3 0.2 0.2 0.1 0.1 0.1 0.1 0.1 0.0 0.0 0.0 0.0 0.0 0.0 0.0 0.0 0.1 0.1 0.1
10.8 9.9 2.6 1.3 2.8 5.6 5.0 8.0 17.2 19.8 14.9 6.9 3.4 4.8 4.0 2.7 2.0 2.2 1.7 1.1 0.7 0.3 0.4 0.3 0.3 0.3 0.3 0.2 0.1 0.1 0.1 0.2 0.2 0.0 0.0 0.0 0.0 0.0 0.0 0.0 0.1 0.1 0.1 0.0
11.0 8.6 2.1 0.9 0.9 2.7 6.8 7.4 5.3 10.5 8.8 6.1 5.1 3.8 3.1 1.8 1.8 1.9 2.1 1.3 1.1 0.9 0.2 0.3 0.2 0.2 0.3 0.2 0.2 0.1 0.1 0.1 0.3 0.3 0.0 0.0 0.0 0.0 0.0 0.0 0.1 0.1 0.1 0.0
10.9 10.0 3.4 1.5 1.5 2.0 3.9 5.3 8.9 15.3 14.1 8.2 4.9 3.9 4.4 3.4 2.6 2.1 2.2 2.5 1.1 1.0 0.3 0.3 0.2 0.1 0.2 0.2 0.1 0.1 0.0 0.0 0.1 0.2 0.0 0.0 0.1 0.0 0.0 0.2 0.1 0.1 0.0 0.1
9.0 11.4 7.9 4.3 6.2 6.6 6.1 8.6 11.6 13.2 11.3 10.4 6.9 5.2 4.4 3.6 2.8 2.6 2.1 2.2 1.5 1.4 1.0 0.6 0.4 0.2 0.1 0.2 0.1 0.1 0.1 0.1 0.1 0.0 0.0 0.1 0.0 0.1 0.1 0.2 0.2 0.2 0.1 0.1
8.9 12.0 11.2 6.2 2.8 2.9 4.9 8.2 10.4 15.6 12.5 7.9 7.8 6.1 3.1 2.4 2.1 2.1 2.1 2.1 2.0 1.5 1.1 0.8 0.5 0.3 0.2 0.2 0.2 0.3 0.1 0.1 0.1 0.1 0.0 0.0 0.1 0.2 0.1 0.3 0.4 0.2 0.2 0.2
12.7 16.1 17.1 10.6 6.2 4.3 6.5 7.2 8.4 9.9 11.1 9.0 8.1 5.9 2.5 1.7 1.6 1.6 1.6 1.6 1.6 1.5 1.0 0.7 0.8 0.5 0.5 0.6 0.5 0.6 0.4 0.4 0.2 0.1 0.1 0.1 0.2 0.1 0.3 0.2 0.2 0.3 0.3 0.2
12.0 17.9 13.8 12.6 9.5 9.1 9.2 7.0 6.8 10.2 14.1 9.5 6.2 5.0 3.5 2.9 2.6 2.1 1.8 1.8 2.1 1.9 1.5 1.2 1.1 1.1 1.0 0.9 0.9 0.9 0.8 0.7 0.7 0.6 0.3 0.5 0.6 0.4 0.5 0.4 0.6 1.0 1.6 1.7
12.7 15.7 7.3 4.3 4.1 4.8 6.0 5.4 5.5 7.5 8.0 7.8 4.9 4.2 4.5 3.6 3.3 2.9 2.4 2.0 2.0 2.0 2.0 1.9 1.6 1.4 1.3 1.2 0.9 0.9 0.9 1.0 1.1 1.1 0.8 0.9 1.0 1.4 1.0 0.8 0.9 1.3 2.0 2.7
12.8 14.2 7.1 4.2 2.7 3.4 4.5 3.6 3.3 3.9 4.1 4.8 4.2 4.8 3.7 2.8 2.4 2.5 2.5 2.4 2.5 2.8 2.7 2.4 2.2 1.8 1.8 1.8 1.6 1.2 1.3 1.2 1.2 1.2 1.1 1.3 1.7 2.2 2.2 1.2 1.1 1.4 2.0 2.5
12.5 12.7 11.5 7.6 3.2 5.0 7.5 4.7 3.9 4.0 4.0 4.5 5.3 5.3 4.0 3.2 2.8 2.9 2.7 2.8 2.8 3.0 3.0 2.8 2.9 2.7 2.4 2.2 2.4 2.4 1.7 1.1 1.1 1.4 1.5 1.9 2.0 2.5 2.5 2.3 2.1 2.5 3.0 3.0
10.2 11.7 14.8 11.4 8.4 12.1 5.9 3.5 3.3 3.6 4.5 4.3 4.7 4.6 4.0 3.8 3.6 3.0 2.8 3.1 3.1 3.0 2.7 2.7 3.1 2.9 2.5 2.3 2.3 2.0 2.1 1.6 1.3 1.3 1.7 1.9 2.0 2.4 2.2 1.8 2.3 2.6 2.1 2.0
5.1 11.0 17.0 15.0 11.4 6.7 3.4 2.9 3.9 4.6 5.6 4.6 4.3 4.0 3.3 3.1 2.8 3.0 2.6 2.7 3.1 2.8 2.6 2.6 2.5 2.5 2.1 2.0 2.3 2.1 1.9 1.8 1.6 1.7 1.6 1.9 1.9 2.3 2.0 1.8 1.6 1.8 1.6 1.6
5.0 9.5 17.3 15.9 12.5 6.8 3.8 2.3 2.5 3.7 6.4 4.2 3.7 4.0 3.5 3.3 5.0 4.7 3.2 2.6 2.5 2.2 2.1 2.1 2.0 1.9 1.6 1.5 1.6 1.4 1.5 1.7 1.9 1.9 2.0 1.6 1.6 1.9 1.4 1.3 1.0 0.7 0.8 1.9
9.5 14.1 16.3 13.2 10.5 4.9 3.2 2.2 1.9 6.5 8.5 3.9 3.6 3.9 3.7 4.6 5.9 4.9 3.6 2.9 2.4 2.4 2.1 2.0 1.9 2.0 1.9 1.4 1.1 1.2 1.0 1.6 1.6 1.6 1.7 1.3 1.3 1.2 0.9 1.2 0.8 0.9 1.2 1.3
6.8 9.6 10.3 9.8 10.9 6.0 2.8 3.1 5.7 6.9 3.4 3.2 3.5 3.4 3.8 3.7 3.2 3.1 3.1 2.7 2.3 2.3 1.9 1.8 1.8 2.0 1.9 1.7 1.5 1.4 1.3 1.4 1.3 1.8 2.0 1.6 1.5 1.3 1.2 1.8 1.6 1.3 1.5 1.4
4.9 6.3 6.9 7.0 6.0 4.4 3.4 3.9 3.9 3.0 2.9 2.7 3.0 3.2 3.3 3.3 3.1 3.1 2.7 2.5 2.2 2.1 1.8 1.7 2.0 2.1 1.8 1.6 1.7 1.8 1.5 1.5 1.6 1.7 1.5 1.5 1.2 1.3 1.4 1.8 2.1 1.9 2.0 2.6
3.8 3.3 4.6 4.6 3.6 3.0 2.8 2.8 2.6 2.4 2.7 2.6 2.8 3.2 3.1 3.4 3.2 2.9 2.5 2.3 2.1 2.0 1.6 1.7 1.8 2.2 2.3 2.1 2.1 2.0 1.9 1.9 2.0 1.9 1.3 1.0 1.1 1.1 1.2 1.4 2.1 2.7 3.0 4.1
3.3 3.2 4.3 4.0 2.8 2.4 2.1 2.2 2.4 2.6 2.3 2.3 2.3 2.8 3.0 3.0 2.9 2.7 2.7 2.6 2.6 2.1 1.7 1.6 1.9 2.2 2.5 2.3 2.3 2.1 2.6 2.6 2.5 1.9 1.6 1.3 1.1 1.1 1.3 1.3 1.7 2.7 3.0 5.0
2.6 3.3 4.3 3.9 2.4 2.9 2.5 1.8 1.9 2.4 2.4 2.2 2.4 2.6 2.3 2.4 2.8 2.6 2.5 2.4 2.4 2.1 1.9 1.8 2.1 2.5 2.4 2.4 2.5 2.4 2.8 3.2 3.5 2.6 2.1 1.8 1.8 1.3 1.3 1.5 1.8 1.5 2.3 2.5